星链-4157 (STARLINK-4157 )

导读 | 星芒AI

STARLINK-4157 是 SpaceX 星链计划中的一颗低轨通信卫星,属于第 15 批星链卫星(Batch 15)。它于 2021 年 12 月 3 日由猎鹰 9 号火箭从卡纳维拉尔角发射升空,部署在约 550 公里的轨道高度。该卫星采用星链第二代设计,具备高速互联网通信能力,旨在为全球用户提供低延迟、高带宽的网络服务。作为星链星座的一部分,STARLINK-4157 支持全球范围内的宽带接入,尤其服务于偏远和网络基础设施薄弱的地区。

基本信息
目录编号:
53035
目录名称:
STARLINK-4157
国际标识:
2022-076BB
轨道中心:
EARTH
卫星名称:
星链-4157
卫星全名:
星链-4157 (STARLINK-4157 )
卫星状态:
在轨 (已飞行1263 天)
发射日期:
2022-07-07 UTC
国别 :
美国 (US)
星等 :
--
轨道信息
数据来源 国际轨道数据 AOE轨道数据
星历时间 2025-12-21T06:11:10+0800
7小时前
查看轨道信息
2025-12-20T09:00:00+0800
1天前
查看轨道信息
半长轴 6917.883km 6917.893km
偏心率 0.0001288 0.0001376
轨道倾角 53.218° 53.218°
近地点辐角 85.477° 78.863°
升交点赤经 67.712° 71.676°
平近点角 274.637° 163.653°
近地点 538.854km 538.804km
远地点 540.638km 540.708km
周期 95.438分钟 95.438分钟
每日圈数 15.088393 15.088359
详细信息
固有亮度:
5
最大亮度:
2.5
卫星平台:
Starlink v1.5
覆盖范围:
全球
运营商:
太空探索技术公司
运营商所在国:
美国
制造商(研发单位):
太空探索技术公司
制造商所在国:
美国
使用方式:
暂无
卫星简介
星链(Starlink)计划是由太空探索技术公司(SpaceX)提出的一个巨型低轨卫星互联网星座项目,计划在2019年至2024年间在太空搭建由约1.2万颗卫星组成的“星链”网络,其中1584颗将部署在地球上空550千米处的近地轨道,并从2020年开始工作。该卫星仍在工作。
2D轨道图
3D轨道图
轨道高度分析图
轨道倾角分析图
轨道综合分析图
查看轨道综合分析图